CZ-6A DEB

Satellite information

Favourite Embed

Satellite Type and Status

DEBRISIN ORBIT

Key statistics

Satellite CZ-6A DEB at a glance.

Uptime

969

Days in orbit

Revolutions

≈ 14.4

Per day

Orbit

SSO

Sun Synchronous Orbit

Inclination

98.6

Latest

Satellite identification and parameters

Extended collection of information and parameters for CZ-6A DEB.

Object identification

Identified? True

Debris? True

Object name: CZ-6A DEB

International designator: 2022-151HC

Object number (NORAD): 54476

Object ID (CCSDS): 54476

Country: PEOPLES REPUBLIC OF CHINA (PRC)

Current information (Y/N): Y

RCS size: SMALL

Orbital parameters

Period: 99.689 minutes

Inclination: 98.6363 deg

SMA: 7121.822 km

Apoapsis: 821.862 km

Periapsis: 665.511 km

RAAN: 216.5516 deg

Eccentricy: 0.0109769

Argument of periapsis: 321.1275 deg

Mean anomaly: 38.2057 deg

Mean motion: 14.44495295 rev/day

Mean motion (dot): 0.000024 rev/day2

B* drag term: 0.0006593 1/REarth

Two-line elements (TLE)

Creation date: July 6, 2025, 3:06 p.m.

Reference frame: TEME

Reference center: EARTH

Epoch: July 6, 2025, 1:35 p.m. UTC

TLE line 0: 0 CZ-6A DEB

TLE line 1: 1 54476U 22151HC 25187.56666113 .00002400 00000-0 65930-3 0 9996

TLE line 2: 2 54476 98.6363 216.5516 0109769 321.1275 38.2057 14.44495295138770

Live tracking on map

Real-time ground track for satellite CZ-6A DEB.

In-orbit conjunctions

A list of the most updated potential collisions computed for object CZ-6A DEB.

Target Orbit TCA Probability of collision Miss distance Type
COSMOS 371 LEO 2024-11-11 21:42:35 0.0003842197 543.0 (m) PAYLOAD
NOAA 16 DEB SSO 2024-07-10 07:22:33 0.0002248413 51.0 (m) DEBRIS
COSMOS 1818 LEO 2024-07-04 00:36:26 0.0001117129 444.0 (m) PAYLOAD
CZ-6A DEB SSO 2024-06-22 05:44:48 0.0002693573 118.0 (m) DEBRIS

Associated space launch

Chinese satellite reported for atmospheric/ocean/environmental/spatial parameter research purposes, details TBD.

CZ-6A DEB was lifted into orbit during the mission ‘Long March 6A | Yunhai 3’, on board a Long March 6A space rocket.

The launch took place on Nov. 11, 2022, 10:52 p.m. from Launch Complex 9A.

For more information about the launch, click the button.

Launch to space Long March 6A | Yunhai 3
Long March 6A | Yunhai 3

Agency: N/A

Status: Launch Successful

Launch date: Nov. 11, 2022, 10:52 p.m. UTC

Rocket: Long March 6A

Launch pad: Launch Complex 9A

Location: Taiyuan Satellite Launch Center, People's Republic of China

...

Latest news about this satellite

There are no fresh news available about this satellite. Check back as we update our databases every day.


Newsletter sign-up

Weekly statistics, charts and insights to help you stay on top of the space industry.